This demonstration page uses our WeatherBlox Daily Observations layout. Learn more.

Left ArrowRight Arrow

Hourly Observations for November 6, 2016

Temp ( °F °C ) Dew Point ( °F °C ) Humidity (%) Winds ( mph kmh ) Pressure ( in mb ) Visibility ( mi km ) Precip ( " mm )
12:51 am 00:51 Clear 52 11.1 50 10 93 93 ESE 5 7 29.96 1015 10 16.0934 N/A
1:51 am 01:51 Clear 52 11.1 50 10 93 93 ESE 5 7 29.97 1015 10 16.0934 N/A
2:51 am 02:51 Clear 52 11.1 50 10 93 93 E 5 7 29.97 1015 10 16.0934 N/A
3:51 am 03:51 Clear 50 10 48 8.9 93 93 N N/A 29.98 1015 10 16.0934 N/A
4:51 am 04:51 Clear 50 10 48 8.9 93 93 N N/A 30 1016 10 16.0934 N/A
5:51 am 05:51 Clear 48 8.9 46 7.8 93 93 ESE 3 6 30.02 1017 10 16.0934 N/A
6:51 am 06:51 Sunny 48 8.9 46 7.8 93 93 SE 5 7 30.05 1018 10 16.0934 N/A
7:51 am 07:51 Sunny 53 11.7 50 10 89 89 N N/A 30.07 1018 10 16.0934 N/A
8:51 am 08:51 Sunny 57 13.9 49 9.4 74 74 SE 3 6 30.07 1018 10 16.0934 N/A
9:51 am 09:51 Sunny 61 16.1 49 9.4 65 65 S 3 6 30.05 1018 10 16.0934 N/A
10:51 am 10:51 Sunny 66 18.9 49 9.4 54 54 WNW 3 6 30.04 1017 10 16.0934 N/A
11:51 am 11:51 Sunny 69 20.6 49 9.4 49 49 WNW 7 11 30.02 1017 10 16.0934 N/A
12:51 pm 12:51 Sunny 71 21.7 48 8.9 44 44 VRB 6 9 29.99 1016 10 16.0934 N/A
1:51 pm 13:51 Sunny 75 23.9 45 7.2 34 34 W 6 9 29.96 1014 10 16.0934 N/A
2:51 pm 14:51 Sunny 76 24.4 44 6.7 32 32 NW 7 11 29.95 1014 10 16.0934 N/A
3:51 pm 15:51 Sunny 76 24.4 43 6.1 31 31 NNW 7 11 29.95 1014 10 16.0934 N/A
4:51 pm 16:51 Sunny 73 22.8 46 7.8 38 38 NW 6 9 29.96 1015 10 16.0934 N/A
5:51 pm 17:51 Clear 66 18.9 51 10.6 59 59 W 7 11 29.98 1015 10 16.0934 N/A
6:51 pm 18:51 Clear 62 16.7 51 10.6 67 67 NW 6 9 30.01 1016 10 16.0934 N/A
7:51 pm 19:51 Clear 60 15.6 50 10 70 70 NNW 8 13 30.02 1017 10 16.0934 N/A
8:51 pm 20:51 Clear 57 13.9 49 9.4 74 74 S 3 6 30.03 1017 10 16.0934 N/A
9:51 pm 21:51 Clear 56 13.3 50 10 81 81 SE 5 7 30.04 1017 10 16.0934 N/A
10:51 pm 22:51 Clear 55 12.8 49 9.4 80 80 SE 3 6 30.03 1017 10 16.0934 N/A
11:51 pm 23:51 Clear 54 12.2 49 9.4 83 83 VRB 3 6 30.03 1017 10 16.0934 N/A

Powered by AerisWeather